Time,TemperatureF,DewpointF,PressureIn,WindDirection,WindDirectionDegrees,WindSpeedMPH,WindSpeedGustMPH,Humidity,HourlyPrecipIn,Conditions,Clouds,dailyrainin,SolarRadiationWatts/m^2,SoftwareType,DateUTC
2013-08-06 00:06:00,66.7,62.0,29.83,South,180,0.0,4.0,86,0.00,,,0.00,0,weatherlink.com 1.10,2013-08-06 05:06:00,
2013-08-06 00:21:00,66.4,63.0,29.82,SSW,199,2.0,3.0,87,0.00,,,0.00,0,weatherlink.com 1.10,2013-08-06 05:21:00,
2013-08-06 00:36:00,66.3,62.0,29.83,South,188,1.0,3.0,87,0.00,,,0.00,0,weatherlink.com 1.10,2013-08-06 05:36:00,
2013-08-06 00:51:00,65.9,62.0,29.82,South,191,1.0,4.0,88,0.00,,,0.00,0,weatherlink.com 1.10,2013-08-06 05:51:00,
2013-08-06 01:07:00,65.7,62.0,29.82,SSW,209,2.0,4.0,89,0.00,,,0.00,0,weatherlink.com 1.10,2013-08-06 06:07:00,
2013-08-06 01:22:00,65.7,63.0,29.82,South,188,2.0,3.0,90,0.00,,,0.00,0,weatherlink.com 1.10,2013-08-06 06:22:00,
2013-08-06 01:37:00,65.8,63.0,29.82,South,173,2.0,3.0,90,0.00,,,0.00,0,weatherlink.com 1.10,2013-08-06 06:37:00,
2013-08-06 01:52:00,65.9,63.0,29.83,SSW,195,3.0,4.0,90,0.00,,,0.00,0,weatherlink.com 1.10,2013-08-06 06:52:00,
2013-08-06 02:07:00,65.9,63.0,29.82,SSW,199,3.0,6.0,90,0.00,,,0.00,0,weatherlink.com 1.10,2013-08-06 07:07:00,
2013-08-06 02:22:00,65.8,63.0,29.82,SSW,202,1.0,4.0,90,0.00,,,0.00,0,weatherlink.com 1.10,2013-08-06 07:22:00,
2013-08-06 02:37:00,65.5,63.0,29.81,South,190,0.0,5.0,91,0.00,,,0.00,0,weatherlink.com 1.10,2013-08-06 07:37:00,
2013-08-06 02:52:00,65.3,63.0,29.81,SSW,205,2.0,5.0,92,0.00,,,0.00,0,weatherlink.com 1.10,2013-08-06 07:52:00,
2013-08-06 03:07:00,65.0,63.0,29.80,South,188,1.0,3.0,92,0.00,,,0.00,0,weatherlink.com 1.10,2013-08-06 08:07:00,
2013-08-06 03:22:00,64.8,63.0,29.81,SSW,194,3.0,5.0,93,0.00,,,0.00,0,weatherlink.com 1.10,2013-08-06 08:22:00,
2013-08-06 03:37:00,64.7,63.0,29.80,SSW,196,0.0,5.0,93,0.00,,,0.00,0,weatherlink.com 1.10,2013-08-06 08:37:00,
2013-08-06 03:52:00,64.5,63.0,29.80,SSW,196,0.0,3.0,94,0.00,,,0.00,0,weatherlink.com 1.10,2013-08-06 08:52:00,
2013-08-06 04:07:00,64.6,63.0,29.79,South,177,2.0,3.0,94,0.00,,,0.00,0,weatherlink.com 1.10,2013-08-06 09:07:00,
2013-08-06 04:22:00,64.7,63.0,29.79,South,181,2.0,2.0,94,0.00,,,0.00,0,weatherlink.com 1.10,2013-08-06 09:22:00,
2013-08-06 04:37:00,64.8,63.0,29.79,SSW,200,2.0,3.0,94,0.00,,,0.00,0,weatherlink.com 1.10,2013-08-06 09:37:00,
2013-08-06 04:52:00,65.0,63.0,29.79,SSW,203,2.0,6.0,94,0.00,,,0.00,0,weatherlink.com 1.10,2013-08-06 09:52:00,
2013-08-06 05:07:00,65.2,64.0,29.80,SSW,193,0.0,3.0,94,0.00,,,0.00,0,weatherlink.com 1.10,2013-08-06 10:07:00,
2013-08-06 05:22:00,65.1,63.0,29.80,SW,228,0.0,3.0,93,0.00,,,0.00,0,weatherlink.com 1.10,2013-08-06 10:22:00,
2013-08-06 05:37:00,64.7,63.0,29.80,South,175,1.0,3.0,94,0.00,,,0.00,0,weatherlink.com 1.10,2013-08-06 10:37:00,
2013-08-06 05:52:00,64.7,63.0,29.80,SSW,207,1.0,4.0,94,0.00,,,0.00,0,weatherlink.com 1.10,2013-08-06 10:52:00,
2013-08-06 06:07:00,64.6,63.0,29.80,South,190,2.0,4.0,94,0.00,,,0.00,11,weatherlink.com 1.10,2013-08-06 11:07:00,
2013-08-06 06:22:00,64.9,63.0,29.79,WSW,250,0.0,2.0,94,0.00,,,0.00,21,weatherlink.com 1.10,2013-08-06 11:22:00,
2013-08-06 06:37:00,65.2,64.0,29.79,SW,215,0.0,2.0,94,0.00,,,0.00,51,weatherlink.com 1.10,2013-08-06 11:37:00,
2013-08-06 06:52:00,65.3,64.0,29.79,SSW,203,0.0,2.0,94,0.00,,,0.00,46,weatherlink.com 1.10,2013-08-06 11:52:00,
2013-08-06 07:07:00,65.9,64.0,29.79,SSW,198,1.0,2.0,94,0.00,,,0.00,47,weatherlink.com 1.10,2013-08-06 12:07:00,
2013-08-06 07:22:00,66.9,65.0,29.80,SE,144,0.0,1.0,93,0.00,,,0.00,60,weatherlink.com 1.10,2013-08-06 12:22:00,
2013-08-06 07:37:00,67.7,65.0,29.80,South,172,0.0,3.0,92,0.00,,,0.00,90,weatherlink.com 1.10,2013-08-06 12:37:00,
2013-08-06 07:52:00,68.6,66.0,29.81,South,174,1.0,4.0,91,0.00,,,0.00,74,weatherlink.com 1.10,2013-08-06 12:52:00,
2013-08-06 08:07:00,69.8,67.0,29.82,West,277,0.0,3.0,90,0.00,,,0.00,123,weatherlink.com 1.10,2013-08-06 13:07:00,
2013-08-06 08:22:00,70.7,67.0,29.82,South,182,0.0,6.0,88,0.00,,,0.00,229,weatherlink.com 1.10,2013-08-06 13:22:00,
2013-08-06 08:37:00,71.8,68.0,29.82,SSW,198,1.0,3.0,86,0.00,,,0.00,378,weatherlink.com 1.10,2013-08-06 13:37:00,
2013-08-06 08:52:00,72.5,68.0,29.81,SSE,167,2.0,6.0,85,0.00,,,0.00,339,weatherlink.com 1.10,2013-08-06 13:52:00,
2013-08-06 09:07:00,72.5,68.0,29.82,South,190,2.0,7.0,85,0.00,,,0.00,485,weatherlink.com 1.10,2013-08-06 14:07:00,
2013-08-06 09:22:00,73.1,68.0,29.82,SSW,195,1.0,7.0,83,0.00,,,0.00,271,weatherlink.com 1.10,2013-08-06 14:22:00,
2013-08-06 09:37:00,71.3,67.0,29.83,South,184,0.0,5.0,85,0.00,,,0.00,200,weatherlink.com 1.10,2013-08-06 14:37:00,
2013-08-06 09:52:00,71.6,67.0,29.83,West,281,1.0,6.0,85,0.00,,,0.00,322,weatherlink.com 1.10,2013-08-06 14:52:00,
2013-08-06 10:07:00,71.8,67.0,29.83,South,178,3.0,8.0,84,0.00,,,0.00,309,weatherlink.com 1.10,2013-08-06 15:07:00,
2013-08-06 10:22:00,72.0,67.0,29.83,SSW,204,0.0,5.0,84,0.00,,,0.00,269,weatherlink.com 1.10,2013-08-06 15:22:00,
2013-08-06 10:37:00,73.9,68.0,29.83,WNW,292,2.0,4.0,82,0.00,,,0.00,524,weatherlink.com 1.10,2013-08-06 15:37:00,
2013-08-06 10:53:00,74.9,69.0,29.83,South,180,4.0,5.0,82,0.00,,,0.00,833,weatherlink.com 1.10,2013-08-06 15:53:00,
2013-08-06 11:08:00,76.2,69.0,29.82,South,186,2.0,5.0,78,0.00,,,0.00,867,weatherlink.com 1.10,2013-08-06 16:08:00,
2013-08-06 11:23:00,76.4,68.0,29.81,South,179,2.0,9.0,76,0.00,,,0.00,798,weatherlink.com 1.10,2013-08-06 16:23:00,
2013-08-06 11:38:00,77.1,69.0,29.81,South,177,2.0,6.0,75,0.00,,,0.00,288,weatherlink.com 1.10,2013-08-06 16:38:00,
2013-08-06 11:53:00,78.3,69.0,29.81,SSW,202,3.0,8.0,72,0.00,,,0.00,877,weatherlink.com 1.10,2013-08-06 16:53:00,
2013-08-06 12:08:00,79.3,68.0,29.81,SSW,207,7.0,9.0,68,0.00,,,0.00,881,weatherlink.com 1.10,2013-08-06 17:08:00,
2013-08-06 12:23:00,79.6,69.0,29.81,South,182,0.0,8.0,69,0.00,,,0.00,946,weatherlink.com 1.10,2013-08-06 17:23:00,
2013-08-06 12:38:00,80.2,68.0,29.81,ENE,62,1.0,4.0,67,0.00,,,0.00,237,weatherlink.com 1.10,2013-08-06 17:38:00,
2013-08-06 12:53:00,80.5,69.0,29.80,West,270,0.0,5.0,67,0.00,,,0.00,872,weatherlink.com 1.10,2013-08-06 17:53:00,
2013-08-06 13:08:00,80.3,68.0,29.80,South,188,1.0,8.0,67,0.00,,,0.00,728,weatherlink.com 1.10,2013-08-06 18:08:00,
2013-08-06 13:23:00,81.1,67.0,29.79,South,181,4.0,8.0,63,0.00,,,0.00,619,weatherlink.com 1.10,2013-08-06 18:23:00,
2013-08-06 13:38:00,83.6,68.0,29.79,WNW,294,2.0,7.0,59,0.00,,,0.00,830,weatherlink.com 1.10,2013-08-06 18:38:00,
2013-08-06 13:53:00,81.5,69.0,29.79,NW,307,1.0,6.0,65,0.00,,,0.00,679,weatherlink.com 1.10,2013-08-06 18:53:00,
2013-08-06 14:08:00,82.4,69.0,29.77,SSW,192,1.0,7.0,63,0.00,,,0.00,701,weatherlink.com 1.10,2013-08-06 19:08:00,
2013-08-06 14:23:00,82.8,68.0,29.78,SSW,194,0.0,8.0,61,0.00,,,0.00,659,weatherlink.com 1.10,2013-08-06 19:23:00,
2013-08-06 14:38:00,82.7,68.0,29.77,South,185,1.0,9.0,62,0.00,,,0.00,626,weatherlink.com 1.10,2013-08-06 19:38:00,
2013-08-06 14:53:00,83.4,70.0,29.77,South,187,4.0,5.0,64,0.00,,,0.00,668,weatherlink.com 1.10,2013-08-06 19:53:00,
2013-08-06 15:08:00,83.3,70.0,29.77,SSW,195,1.0,7.0,65,0.00,,,0.00,631,weatherlink.com 1.10,2013-08-06 20:08:00,
2013-08-06 15:23:00,83.5,70.0,29.77,SSW,194,2.0,8.0,64,0.00,,,0.00,457,weatherlink.com 1.10,2013-08-06 20:23:00,
2013-08-06 15:38:00,83.5,71.0,29.76,South,187,4.0,6.0,66,0.00,,,0.00,698,weatherlink.com 1.10,2013-08-06 20:38:00,
2013-08-06 15:53:00,83.7,70.0,29.75,South,175,5.0,7.0,63,0.00,,,0.00,664,weatherlink.com 1.10,2013-08-06 20:53:00,
2013-08-06 16:08:00,83.4,69.0,29.75,South,190,1.0,6.0,63,0.00,,,0.00,675,weatherlink.com 1.10,2013-08-06 21:08:00,
2013-08-06 16:23:00,82.4,69.0,29.75,WNW,284,0.0,4.0,63,0.00,,,0.00,137,weatherlink.com 1.10,2013-08-06 21:23:00,
2013-08-06 16:38:00,82.9,69.0,29.76,South,186,3.0,5.0,63,0.00,,,0.00,564,weatherlink.com 1.10,2013-08-06 21:38:00,
2013-08-06 16:53:00,82.3,69.0,29.75,South,175,1.0,7.0,65,0.00,,,0.00,466,weatherlink.com 1.10,2013-08-06 21:53:00,
2013-08-06 17:08:00,81.6,69.0,29.75,SSW,205,2.0,7.0,66,0.00,,,0.00,392,weatherlink.com 1.10,2013-08-06 22:08:00,
2013-08-06 17:23:00,81.3,69.0,29.76,WNW,288,0.0,6.0,66,0.00,,,0.00,378,weatherlink.com 1.10,2013-08-06 22:23:00,
2013-08-06 17:38:00,81.3,70.0,29.76,South,186,2.0,8.0,68,0.00,,,0.00,250,weatherlink.com 1.10,2013-08-06 22:38:00,
2013-08-06 17:53:00,80.5,70.0,29.76,South,185,1.0,5.0,70,0.00,,,0.00,127,weatherlink.com 1.10,2013-08-06 22:53:00,
2013-08-06 18:08:00,80.6,70.0,29.76,SSW,198,1.0,9.0,71,0.00,,,0.00,90,weatherlink.com 1.10,2013-08-06 23:08:00,
2013-08-06 18:23:00,80.8,70.0,29.76,SSW,197,2.0,4.0,69,0.00,,,0.00,84,weatherlink.com 1.10,2013-08-06 23:23:00,
2013-08-06 18:38:00,80.5,70.0,29.76,SSW,193,3.0,4.0,71,0.00,,,0.00,60,weatherlink.com 1.10,2013-08-06 23:38:00,
2013-08-06 18:53:00,80.1,70.0,29.76,South,186,0.0,4.0,72,0.00,,,0.00,42,weatherlink.com 1.10,2013-08-06 23:53:00,
2013-08-06 19:08:00,79.7,70.0,29.77,SSE,153,1.0,2.0,73,0.00,,,0.00,26,weatherlink.com 1.10,2013-08-07 00:08:00,
2013-08-06 19:23:00,76.4,70.0,29.77,South,175,0.0,2.0,81,0.00,,,0.00,35,weatherlink.com 1.10,2013-08-07 00:23:00,
2013-08-06 19:38:00,76.1,70.0,29.77,South,188,2.0,4.0,82,0.00,,,0.00,30,weatherlink.com 1.10,2013-08-07 00:38:00,
2013-08-06 19:53:00,75.6,70.0,29.77,South,187,0.0,1.0,83,0.00,,,0.00,11,weatherlink.com 1.10,2013-08-07 00:53:00,
2013-08-06 20:08:00,75.0,70.0,29.77,South,175,0.0,2.0,84,0.00,,,0.00,0,weatherlink.com 1.10,2013-08-07 01:08:00,
2013-08-06 20:23:00,74.6,70.0,29.76,South,179,1.0,2.0,84,0.00,,,0.00,0,weatherlink.com 1.10,2013-08-07 01:23:00,
2013-08-06 20:38:00,74.0,69.0,29.75,South,180,0.0,3.0,85,0.00,,,0.00,0,weatherlink.com 1.10,2013-08-07 01:38:00,
2013-08-06 20:53:00,73.7,69.0,29.76,South,186,2.0,4.0,85,0.00,,,0.00,0,weatherlink.com 1.10,2013-08-07 01:53:00,
2013-08-06 21:08:00,73.3,69.0,29.76,South,175,2.0,3.0,86,0.00,,,0.00,0,weatherlink.com 1.10,2013-08-07 02:08:00,
2013-08-06 21:23:00,73.4,69.0,29.76,South,184,0.0,2.0,87,0.00,,,0.00,0,weatherlink.com 1.10,2013-08-07 02:23:00,
2013-08-06 21:38:00,73.4,69.0,29.76,SSW,199,0.0,2.0,87,0.00,,,0.00,0,weatherlink.com 1.10,2013-08-07 02:38:00,
2013-08-06 21:53:00,73.7,69.0,29.76,South,173,0.0,2.0,86,0.00,,,0.00,0,weatherlink.com 1.10,2013-08-07 02:53:00,
2013-08-06 22:08:00,73.6,69.0,29.76,South,180,0.0,5.0,86,0.00,,,0.00,0,weatherlink.com 1.10,2013-08-07 03:08:00,
2013-08-06 22:23:00,73.7,70.0,29.75,SSE,166,2.0,3.0,87,0.00,,,0.00,0,weatherlink.com 1.10,2013-08-07 03:23:00,
2013-08-06 22:38:00,73.8,70.0,29.75,SSW,198,2.0,6.0,87,0.00,,,0.00,0,weatherlink.com 1.10,2013-08-07 03:38:00,
2013-08-06 22:53:00,73.5,70.0,29.76,South,190,1.0,5.0,88,0.00,,,0.00,0,weatherlink.com 1.10,2013-08-07 03:53:00,
2013-08-06 23:08:00,73.4,70.0,29.75,SSW,209,0.0,6.0,89,0.00,,,0.00,0,weatherlink.com 1.10,2013-08-07 04:08:00,
2013-08-06 23:23:00,73.7,70.0,29.75,SSW,196,3.0,6.0,89,0.00,,,0.00,0,weatherlink.com 1.10,2013-08-07 04:23:00,
2013-08-06 23:39:00,73.8,71.0,29.74,SSW,199,5.0,7.0,90,0.00,,,0.00,0,weatherlink.com 1.10,2013-08-07 04:39:00,
2013-08-06 23:54:00,73.7,71.0,29.74,SSW,200,3.0,7.0,90,0.00,,,0.00,0,weatherlink.com 1.10,2013-08-07 04:54:00,